Simultaneous Nadir Overpasses (SNOs) Predictions

Prediction of SNOs between METOP-A and TERRA Satellite Orbit:

Table of predicted SNOs for the next 14.0 days since TLE Epoch: 3/13/2021
Index Date (METOP-A) Time (METOP-A) Lat,Lon (METOP-A) SZA (METOP-A ) Date (TERRA) Time (TERRA) Lat,Lon (TERRA) SZA (TERRA ) Distance(km) Time Diff (sec)
1 03/15/2021 05:24:51 81.34, 145.94 85.88 03/15/2021 05:25:25 81.34, 145.78 85.87 2.66 34
2 03/15/2021 06:15:30 -81.33, -46.57 94.13 03/15/2021 06:14:51 -81.33, -46.67 94.16 1.74 39
3 03/18/2021 00:59:12 81.34,-147.83 84.78 03/18/2021 00:59:37 81.34,-147.75 84.79 1.51 25
4 03/18/2021 01:49:52 -81.34, 19.69 95.23 03/18/2021 01:49:04 -81.33, 19.83 95.24 2.37 48
5 03/20/2021 20:33:33 81.33, -81.23 83.71 03/20/2021 20:33:50 81.34, -81.32 83.70 1.52 17
6 03/20/2021 21:24:13 -81.33, 86.31 96.30 03/20/2021 21:23:17 -81.33, 86.28 96.32 0.93 56
7 03/23/2021 16:07:55 81.34, -15.04 82.60 03/23/2021 16:08:03 81.33, -14.94 82.61 1.88 8
8 03/23/2021 16:58:35 -81.33, 152.52 97.40 03/23/2021 16:57:30 -81.33, 152.69 97.41 2.86 65
9 03/26/2021 10:51:35 -81.34,-116.16 98.48 03/26/2021 10:52:49 -81.33,-116.23 98.47 2.05 74
10 03/26/2021 11:42:15 81.33, 51.52 81.54 03/26/2021 11:42:15 81.33, 51.41 81.52 1.84 0



Historial Predications of SNOs between METOP-A and TERRA
